Voltar ao catálogo

CZ-4C DEB

AtivoLEO
NORAD 43418·DEBRIS·🇨🇳 China

Lançado Dec 10, 2014 de Jiuquan Satellite Launch Center

Loading…

Próximas Passagens (próximas 24 horas)

TLE

ObsoletoSource: Space-Track

Época: Aug 15, 2026, 06:52 UTC

1 43418U 14080G   26227.28627778  .00000044  00000-0  14468-3 0  9993
2 43418  63.3900 170.2355 0386342   9.4088 351.3911 13.45321779552974

Acompanhe CZ-4C DEB em tempo real com AllMySat

Download on the App Store